Location: Gwatt
(46.7204°N, 7.6223°E)
Time: 06:21:39
(UTC+00:00)

In-Cosmos 22 - Pass Details

Date: 18 September 2020
Orbit: 785 x 877 km, 81.2° (Epoch: 23 October)

Event Time Altitude Azimuth Distance (km) Brightness Sun altitude
Rises 19:08:44 0° 348° (NNW) 3,288 7.7 -16.6°
Reaches altitude 10° 19:11:06 10° 348° (NNW) 2,356 7.0 -17.0°
Maximum altitude 19:16:25 88° 262° (W) 797 4.0 -17.8°
Enters shadow 19:21:26 12° 171° (S) 2,242 6.1 -18.6°
